Trenton, NJ

5:31 PM EDT on August 28, 2016 (GMT -0400)
Trenton Mercer

Weather History for KTTN - February, 2014

Change the Weather History Date:

Thursday, February 20, 2014

  Actual Average Record
Temperature  
Mean Temperature 38 °F 35 °F  
Max Temperature 48 °F 43 °F 70 °F (1930)
Min Temperature 28 °F 27 °F 0 °F (2015)
Degree Days  
Heating Degree Days 27 30  
Month to date heating degree days 729 635  
Since 1 July heating degree days 3814 3581  
Cooling Degree Days 0 0  
Month to date cooling degree days 0 0  
Year to date cooling degree days 0 0  
Moisture  
Dew Point 26 °F    
Average Humidity 63    
Maximum Humidity 85    
Minimum Humidity 41    
Precipitation  
Precipitation 0.00 in 0.09 in 1.70 in (1921)
Month to date precipitation 4.18 1.58  
Year to date precipitation 7.45 4.74  
Sea Level Pressure  
Sea Level Pressure 30.13 in    
Wind  
Wind Speed 6 mph (SE)    
Max Wind Speed 12 mph    
Max Gust Speed 15 mph    
Visibility 10 miles    
Events      
T = Trace of Precipitation, MM = Missing Value Source: NWS Daily Summary

Daily Weather History Graph

Daily Weather History Graph

Search for Another Location

Airport or City:

Trip Planner

Search our weather history database for the weather conditions in past years. The results will help you decide how hot, cold, wet, or windy it might be!

Date:

Astronomy

Feb. 20, 2014 Rise Set
Actual Time 6:45 AM EST 5:40 PM EST
Civil Twilight 6:18 AM EST 6:08 PM EST
Nautical Twilight 5:46 AM EST 6:39 PM EST
Astronomical Twilight 5:15 AM EST 7:11 PM EST
Moon 11:33 PM EST (2/20) 9:26 AM EST (2/20)
Length of Visible Light 11h 50m
Length of Day
10h 54m
Waning Gibbous, 71% of the Moon is Illuminated
Feb 20
Waning Gibbous
Feb 22
Last Quarter
Mar 1
New
Mar 8
First Quarter
Mar 16
Full

Hourly Weather History & Observations

Time (EST) Temp. Windchill Dew Point Humidity Pressure Visibility Wind Dir Wind Speed Gust Speed Precip Events Conditions
12:53 AM 41.0 °F - 27.0 °F 57% 30.09 in 10.0 mi North - - N/A   Clear
1:53 AM 37.9 °F - 26.1 °F 62% 30.11 in 10.0 mi North - - N/A   Clear
2:53 AM 37.9 °F - 26.1 °F 62% 30.14 in 10.0 mi North - - N/A   Clear
3:53 AM 35.1 °F - 25.0 °F 67% 30.15 in 10.0 mi North - - N/A   Clear
4:53 AM 32.0 °F - 24.1 °F 73% 30.17 in 10.0 mi North - - N/A   Clear
5:53 AM 32.0 °F 26.4 °F 24.1 °F 73% 30.20 in 10.0 mi WNW 5.8 mph - N/A   Clear
6:53 AM 30.0 °F 24.1 °F 23.0 °F 75% 30.19 in 10.0 mi NW 5.8 mph - N/A   Clear
7:53 AM 28.9 °F 22.8 °F 24.1 °F 82% 30.22 in 10.0 mi WSW 5.8 mph - N/A   Clear
8:53 AM 37.9 °F 32.1 °F 26.1 °F 62% 30.25 in 10.0 mi West 8.1 mph - N/A   Clear
9:53 AM 41.0 °F 37.1 °F 26.1 °F 55% 30.26 in 10.0 mi WNW 5.8 mph - N/A   Clear
10:53 AM 43.0 °F 41.3 °F 25.0 °F 49% 30.22 in 10.0 mi South 3.5 mph - N/A   Clear
11:53 AM 46.0 °F 44.8 °F 25.0 °F 44% 30.20 in 10.0 mi NE 3.5 mph - N/A   Clear
12:53 PM 46.0 °F 43.9 °F 24.1 °F 42% 30.19 in 10.0 mi Variable 4.6 mph - N/A   Partly Cloudy
1:53 PM 45.0 °F 41.2 °F 24.1 °F 44% 30.16 in 10.0 mi SSE 6.9 mph - N/A   Mostly Cloudy
2:53 PM 46.0 °F 43.1 °F 25.0 °F 44% 30.14 in 10.0 mi South 5.8 mph - N/A   Mostly Cloudy
3:53 PM 46.0 °F 43.9 °F 26.1 °F 46% 30.12 in 10.0 mi ESE 4.6 mph - N/A   Overcast
4:53 PM 46.9 °F - 26.1 °F 44% 30.10 in 10.0 mi ESE 6.9 mph - N/A   Overcast
5:53 PM 44.1 °F 38.6 °F 23.0 °F 43% 30.09 in 10.0 mi SSE 10.4 mph - N/A   Overcast
6:53 PM 42.1 °F 37.1 °F 25.0 °F 51% 30.08 in 10.0 mi SSE 8.1 mph - N/A   Overcast
7:24 PM 41.0 °F 35.8 °F 26.1 °F 55% 30.08 in 10.0 mi SSE 8.1 mph - N/A   Overcast
7:53 PM 41.0 °F 37.1 °F 27.0 °F 57% 30.08 in 10.0 mi SSE 5.8 mph - N/A   Overcast
8:53 PM 39.0 °F 36.8 °F 28.9 °F 67% 30.08 in 10.0 mi ENE 3.5 mph - N/A   Overcast
9:53 PM 39.9 °F 35.8 °F 28.9 °F 65% 30.03 in 10.0 mi East 5.8 mph - N/A   Overcast
10:53 PM 39.0 °F 34.8 °F 30.9 °F 73% 30.02 in 10.0 mi ENE 5.8 mph - N/A   Overcast
11:53 PM 37.9 °F 32.1 °F 33.1 °F 83% 29.98 in 10.0 mi ENE 8.1 mph - N/A   Overcast